{"data":{"norad_id":58939,"intl_designator":"2024-027J","name":"STARLINK-31372","alt_names":[],"object_type":"PAYLOAD","status":"ACTIVE","operator":null,"country":"US","launch_date":"2024-02-10","launch_site_code":"AFWTR","launch_vehicle":null,"mission":null,"orbit_class":"UNKNOWN","rcs_meters":null,"size_class":null,"mass_kg":null,"dimensions":null,"purposes":["comms"],"wikipedia_slug":null,"has_3d_model":false,"image_url":null,"decayed_at":null,"tle_current":{"epoch":"2026-09-20T00:35:48.590016Z","epoch_age_seconds":196801,"freshness":"STALE","line1":"1 58939U 24027J   26263.02486794  .00000317  00000+0  20521-4 0  9992","line2":"2 58939  53.1607 126.1295 0001298  70.0829 290.0313 15.34389124147099","mean_motion":15.34389124,"eccentricity":0.0001298,"inclination_deg":53.1607,"raan_deg":126.1295,"arg_perigee_deg":70.0829,"mean_anomaly_deg":290.0313,"bstar":2.0521e-5,"rev_number":14709,"period_min":93.848423289528,"perigee_km":461.84762090297,"apogee_km":463.62351142115,"semimajor_km":6840.8725661621,"source":"CELESTRAK","updated_at":"2026-09-21T09:00:33.997450Z"}}}